Overview Statistics Trail Chart Weather Telemetry Raw packets
 

This is the latest recevied weather packets stored in our database for station/object K1RFS. If no packets are shown the sender has not sent any weather packets the latest 10 day(s).

<< 97 98 99 100 101 102 103 >>
Time Temp. Humidity Pressure Rain* Wind** Luminosity Snow
1787967966 25.56° C 41% 1002.3 hPa 0 mm - 12 W/m² -
1787967662 25° C 41% 1002.2 hPa 0 mm - 21 W/m² -
1787967361 25° C 43% 1002.4 hPa 0 mm - 27 W/m² -
1787967057 25.56° C 44% 1002.4 hPa 0 mm - 39 W/m² -
1787966755 25.56° C 41% 1002.5 hPa 0 mm - 36 W/m² -
1787966454 25.56° C 39% 1002.6 hPa 0 mm - 30 W/m² -
1787966149 25.56° C 40% 1002.4 hPa 0 mm - 30 W/m² -
1787965848 25.56° C 40% 1002.3 hPa 0 mm - 20 W/m² -
1787965543 26.11° C 39% 1002.4 hPa 0 mm - 29 W/m² -
1787965239 26.11° C 39% 1002.5 hPa 0 mm - 38 W/m² -
1787964933 26.11° C 40% 1002.4 hPa 0 mm - 48 W/m² -
1787964628 26.11° C 41% 1002.4 hPa 0 mm - 47 W/m² -
1787964328 26.11° C 41% 1002.4 hPa 0 mm - 55 W/m² -
1787964027 26.11° C 41% 1002.8 hPa 0 mm - 56 W/m² -
1787963727 26.11° C 41% 1002.8 hPa 0 mm - 63 W/m² -
1787963422 26.67° C 39% 1002.6 hPa 0 mm - 51 W/m² -
1787963118 26.67° C 40% 1002.5 hPa 0 mm - 53 W/m² -
1787962817 26.67° C 39% 1002.8 hPa 0 mm - 56 W/m² -
1787962515 27.22° C 38% 1002.6 hPa 0 mm - 134 W/m² -
1787962214 26.67° C 41% 1003.1 hPa 0 mm - 196 W/m² -
1787961909 26.11° C 42% 1003.2 hPa 0 mm - 69 W/m² -
1787961609 25.56° C 44% 1003.2 hPa 0 mm - 185 W/m² -
1787961302 25° C 46% 1003.3 hPa 0 mm - 189 W/m² -
1787960996 24.44° C 47% 1003.2 hPa 0 mm - 154 W/m² -
1787960692 25° C 48% 1003.2 hPa 0 mm - 119 W/m² -

* Rain latest hour (hover to see other rain measurements)
** Current wind speed in m/s (hover to see current wind gust speed)